Guam Agana, GU

10:27 AM ChST on December 08, 2019 (GMT +1000)
Guam International

Weather History for PGUM - October, 2019

Change the Weather History Date:

Tuesday, October 22, 2019

  Actual Average Record
Temperature  
Mean Temperature 82 °F -  
Max Temperature 87 °F 84 °F 91 °F (2016)
Min Temperature 77 °F 75 °F 73 °F (2005)
Cooling Degree Days 17    
Growing Degree Days 32 (Base 50)    
Moisture  
Dew Point 74 °F    
Average Humidity 79    
Maximum Humidity 90    
Minimum Humidity 65    
Precipitation  
Precipitation 0.00 in - - ()
Sea Level Pressure  
Sea Level Pressure 29.78 in    
Wind  
Wind Speed 4 mph ()    
Max Wind Speed 10 mph    
Max Gust Speed -    
Visibility 10.0 miles    
Events      
Averages and records for this station are not official NWS values.
T = Trace of Precipitation, MM = Missing Value Source: Averaged Metar Reports

Daily Weather History Graph

Daily Weather History Graph

Search for Another Location

Airport or City:

Astronomy

Oct. 22, 2019 Rise Set
Actual Time 6:12 AM ChST 5:58 PM ChST
Civil Twilight 5:50 AM ChST 6:19 PM ChST
Nautical Twilight 5:25 AM ChST 6:44 PM ChST
Astronomical Twilight 5:00 AM ChST 7:09 PM ChST
Moon 12:04 AM ChST (10/22) 1:16 PM ChST (10/22)
Length of Visible Light 12h 28m
Length of Day
11h 45m
Last Quarter, 44% of the Moon is Illuminated
Oct 22
Last Quarter
Oct 28
New
Nov 4
First Quarter
Nov 12
Full
Nov 20
Last Quarter

Hourly Weather History & Observations

Time (ChST) Temp. Heat Index Dew Point Humidity Pressure Visibility Wind Dir Wind Speed Gust Speed Precip Events Conditions
12:54 AM 77.0 °F - 73.0 °F 88% 29.74 in 10.0 mi Calm Calm - N/A   Clear
1:54 AM 77.0 °F - 73.9 °F 90% 29.73 in 10.0 mi South 3.5 mph - N/A   Partly Cloudy
2:54 AM 77.0 °F - 73.0 °F 88% 29.72 in 10.0 mi SSW 5.8 mph - N/A   Partly Cloudy
3:54 AM 77.0 °F - 73.0 °F 88% 29.71 in 10.0 mi South 3.5 mph - N/A   Clear
4:54 AM 77.0 °F - 73.0 °F 88% 29.72 in 10.0 mi SSW 4.6 mph - N/A   Clear
5:54 AM 77.0 °F - 73.0 °F 88% 29.75 in 10.0 mi South 4.6 mph - N/A   Clear
6:54 AM 78.1 °F - 73.0 °F 84% 29.78 in 10.0 mi SSE 4.6 mph - N/A   Clear
7:54 AM 80.1 °F 85.1 °F 75.0 °F 85% 29.79 in 10.0 mi South 5.8 mph - N/A   Clear
7:55 AM - - - N/A% - - North - - N/A   Unknown
8:54 AM 82.0 °F 89.4 °F 75.9 °F 82% 29.81 in 10.0 mi SSW 6.9 mph - N/A   Scattered Clouds
9:54 AM 82.9 °F 89.4 °F 73.9 °F 74% 29.82 in 10.0 mi SW 8.1 mph - N/A   Partly Cloudy
10:54 AM 84.9 °F 92.1 °F 73.9 °F 69% 29.81 in 10.0 mi SSW 8.1 mph - N/A   Clear
11:54 AM 84.9 °F 92.1 °F 73.9 °F 69% 29.79 in 10.0 mi South 10.4 mph - N/A   Mostly Cloudy
12:54 PM 86.0 °F 95.1 °F 75.0 °F 70% 29.77 in 10.0 mi SSW 8.1 mph - N/A   Mostly Cloudy
1:54 PM 84.9 °F 93.3 °F 75.0 °F 72% 29.75 in 10.0 mi South 8.1 mph - N/A   Mostly Cloudy
2:02 PM 86.0 °F 96.0 °F 75.9 °F 72% 29.77 in 10.0 mi South 9.2 mph - N/A   Mostly Cloudy
2:41 PM 87.1 °F 96.3 °F 75.0 °F 67% 29.77 in 10.0 mi SW 8.1 mph - N/A   Partly Cloudy
2:54 PM 86.0 °F 93.0 °F 73.0 °F 65% 29.75 in 10.0 mi SSW 8.1 mph - N/A   Partly Cloudy
3:39 PM 84.9 °F 94.1 °F 75.9 °F 74% 29.77 in 10.0 mi SSE 9.2 mph - N/A   Mostly Cloudy
3:46 PM 84.9 °F 94.1 °F 75.9 °F 74% 29.77 in 10.0 mi South 8.1 mph - N/A   Mostly Cloudy
3:54 PM 84.9 °F 93.3 °F 75.0 °F 72% 29.74 in 10.0 mi SSW 6.9 mph - N/A   Scattered Clouds
4:54 PM 84.0 °F 91.2 °F 73.9 °F 72% 29.76 in 10.0 mi SSW 4.6 mph - N/A   Clear
5:54 PM 82.0 °F 88.6 °F 75.0 °F 79% 29.78 in 10.0 mi South 4.6 mph - N/A   Clear
6:54 PM 81.0 °F 86.7 °F 75.0 °F 82% 29.79 in 10.0 mi South 4.6 mph - N/A   Clear
7:54 PM 81.0 °F 86.7 °F 75.0 °F 82% 29.82 in 10.0 mi Calm Calm - N/A   Clear
8:54 PM 80.1 °F 85.1 °F 75.0 °F 85% 29.83 in 10.0 mi Calm Calm - N/A   Clear
9:54 PM 80.1 °F 84.5 °F 73.9 °F 81% 29.83 in 10.0 mi Calm Calm - N/A   Clear
10:54 PM 79.0 °F - 73.9 °F 84% 29.82 in 10.0 mi ESE 3.5 mph - N/A   Clear
11:54 PM 79.0 °F - 75.0 °F 88% 29.81 in 10.0 mi Calm Calm - N/A   Clear